TimeHST,TemperatureF,Dew PointF,Humidity,Sea Level PressureIn,VisibilityMPH,Wind Direction,Wind SpeedMPH,Gust SpeedMPH,PrecipitationIn,Events,Conditions,WindDirDegrees,DateUTC
12:53 AM,72.0,64.0,76,30.04,10.0,West,4.6,-,0.00,,Overcast,260,2013-06-11 10:53:00
1:53 AM,70.0,63.0,78,30.02,10.0,SW,3.5,-,N/A,,Scattered Clouds,220,2013-06-11 11:53:00
2:53 AM,69.1,62.1,78,30.02,10.0,SW,4.6,-,N/A,,Mostly Cloudy,230,2013-06-11 12:53:00
3:53 AM,68.0,61.0,78,30.02,10.0,WSW,5.8,-,N/A,,Partly Cloudy,240,2013-06-11 13:53:00
4:53 AM,69.1,62.1,78,30.02,10.0,WSW,6.9,-,N/A,,Mostly Cloudy,240,2013-06-11 14:53:00
5:53 AM,70.0,63.0,78,30.03,10.0,SW,5.8,-,N/A,,Mostly Cloudy,230,2013-06-11 15:53:00
6:53 AM,73.0,64.0,73,30.04,10.0,WSW,4.6,-,N/A,,Mostly Cloudy,250,2013-06-11 16:53:00
7:53 AM,73.9,64.0,71,30.06,10.0,WSW,6.9,-,0.00,Rain,Light Rain,250,2013-06-11 17:53:00
8:53 AM,77.0,64.0,64,30.06,10.0,WSW,5.8,-,0.00,,Overcast,250,2013-06-11 18:53:00
9:53 AM,78.1,61.0,56,30.06,10.0,Calm,Calm,-,N/A,,Overcast,0,2013-06-11 19:53:00
10:53 AM,75.9,64.9,69,30.06,10.0,East,12.7,-,0.01,,Overcast,80,2013-06-11 20:53:00
11:53 AM,80.1,64.9,60,30.05,10.0,East,12.7,-,N/A,,Overcast,100,2013-06-11 21:53:00
12:53 PM,82.0,62.1,51,30.03,10.0,Calm,Calm,-,N/A,,Mostly Cloudy,0,2013-06-11 22:53:00
1:53 PM,82.9,62.1,49,30.01,10.0,SSE,8.1,-,N/A,,Mostly Cloudy,150,2013-06-11 23:53:00
2:53 PM,82.9,62.1,49,30.01,10.0,East,10.4,-,N/A,,Mostly Cloudy,100,2013-06-12 00:53:00
3:53 PM,81.0,60.1,49,30.00,10.0,SE,8.1,-,N/A,,Mostly Cloudy,130,2013-06-12 01:53:00
4:53 PM,79.0,64.0,60,30.00,10.0,ESE,8.1,-,N/A,,Overcast,110,2013-06-12 02:53:00
5:53 PM,73.9,66.9,79,30.02,10.0,East,12.7,-,N/A,,Overcast,90,2013-06-12 03:53:00
6:53 PM,73.9,64.0,71,30.03,10.0,WSW,6.9,-,0.00,,Overcast,240,2013-06-12 04:53:00
7:53 PM,73.9,66.0,76,30.05,10.0,West,5.8,-,N/A,,Overcast,260,2013-06-12 05:53:00
8:53 PM,73.0,64.9,76,30.06,10.0,WSW,4.6,-,N/A,,Mostly Cloudy,250,2013-06-12 06:53:00
9:53 PM,73.0,64.9,76,30.07,10.0,WSW,5.8,-,N/A,,Mostly Cloudy,250,2013-06-12 07:53:00
10:53 PM,73.0,64.9,76,30.08,10.0,WSW,3.5,-,N/A,,Overcast,240,2013-06-12 08:53:00
11:32 PM,73.0,66.0,79,30.08,10.0,SSW,3.5,-,N/A,,Overcast,200,2013-06-12 09:32:00
11:53 PM,73.0,66.0,79,30.07,10.0,SW,4.6,-,N/A,,Overcast,230,2013-06-12 09:53:00